GFSMW_sfc_30mbdewp_135.txt.gz
Dewpoint
34 36 38 31 22 23 23 25 26 30 46 61 62 62 62 62 62 62 63 63 66 67 66 64 64 65 63 63 65 64 61 60 60 61 60 61 62 60 58 57 56 60 59
32 34 36 39 39 37 27 26 28 30 31 58 61 62 62 62 61 61 62 63 65 66 66 65 63 64 63 62 64 64 63 62 63 60 59 57 58 60 61 60 58 58 59
32 34 36 39 42 42 39 26 25 28 30 35 60 61 61 61 61 59 59 62 63 66 66 65 64 63 64 61 64 64 63 62 63 62 58 55 52 51 59 60 59 58 57
31 33 36 38 40 42 41 34 25 26 29 32 56 60 60 59 59 58 60 60 62 63 65 65 65 64 62 60 65 64 64 62 61 63 62 61 59 54 53 57 58 58 58
30 31 34 37 38 40 44 42 29 25 29 32 51 59 60 59 58 57 59 59 63 64 64 64 65 65 65 64 64 64 64 63 61 61 61 61 61 60 58 52 55 57 56
30 30 32 35 36 38 40 45 47 27 29 31 47 59 60 59 56 57 57 59 61 63 63 64 64 65 65 64 64 63 62 63 62 62 62 60 59 59 57 56 55 55 56
30 30 30 32 35 37 38 40 42 46 49 51 54 59 60 60 57 57 58 60 62 62 63 63 65 65 65 63 60 58 58 58 60 62 62 62 61 60 59 58 56 55 55
30 30 29 31 32 35 37 39 40 42 46 47 49 54 55 60 59 59 62 63 63 62 64 65 64 64 63 60 60 59 57 57 59 61 62 63 62 62 61 58 57 56 56
31 30 30 30 32 33 35 37 38 40 43 44 46 48 51 54 53 55 62 64 64 63 63 63 63 61 61 60 60 60 58 58 60 59 61 62 61 62 62 61 59 57 54
29 30 30 30 31 32 36 37 39 40 41 42 44 45 46 49 50 50 50 51 52 54 58 61 62 62 61 62 61 60 60 60 60 61 62 62 62 62 62 62 61 60 57
29 30 30 30 31 31 33 34 34 35 37 39 41 42 43 44 45 45 47 48 49 48 48 49 51 54 57 59 61 61 61 60 61 61 61 61 61 62 62 62 61 60 59
30 30 30 30 30 30 31 32 33 34 35 37 37 39 39 41 40 40 40 43 44 44 44 44 45 46 47 49 52 56 60 60 61 61 61 61 62 62 62 61 60 60 60
30 30 30 29 29 30 30 31 33 32 33 33 34 35 36 37 38 39 39 39 39 40 41 42 42 43 44 45 46 47 48 52 57 59 60 60 61 60 60 61 60 60 60
29 28 28 29 29 30 30 31 31 32 32 32 31 33 32 33 34 35 36 37 38 38 38 39 40 41 42 43 44 44 46 48 50 53 56 58 58 59 59 60 60 60 59
27 27 27 28 28 28 29 31 32 32 33 31 30 30 30 31 32 33 34 35 36 37 37 37 38 39 40 40 41 43 45 47 49 51 53 55 58 58 58 58 59 59 58
25 25 25 26 26 26 27 28 29 30 30 31 30 29 29 29 30 30 31 33 34 35 36 36 37 37 38 39 37 36 39 41 44 48 50 55 54 56 56 57 57 58 58
23 23 24 25 26 26 27 27 28 28 28 28 29 29 28 28 29 28 29 30 31 33 33 34 34 35 36 35 34 33 34 35 39 43 46 49 55 55 57 56 54 56 56
22 22 23 25 25 26 27 26 27 27 27 27 27 28 28 27 28 28 28 29 30 31 31 31 31 32 32 32 32 32 33 36 40 43 46 48 55 56 57 57 55 54 55
21 22 23 24 25 25 26 26 26 26 26 27 27 27 27 27 27 28 28 27 27 29 30 30 30 30 29 29 30 30 32 34 39 44 50 53 56 56 56 56 55 52 52
21 22 22 24 24 26 26 26 26 26 26 27 27 27 27 27 27 27 27 27 27 27 28 28 30 29 29 28 28 28 31 32 33 37 47 54 56 56 54 55 54 50 49
21 21 22 22 24 25 26 25 25 25 27 28 27 27 27 27 26 27 26 25 25 26 27 27 28 27 28 28 27 27 29 30 29 33 38 45 51 52 52 53 54 51 49
21 21 21 21 22 23 25 24 24 27 28 28 28 28 28 28 27 26 26 25 24 24 25 25 26 27 27 26 25 26 27 29 29 30 31 33 37 43 47 49 51 50 46
22 21 21 21 21 22 23 23 24 25 26 27 27 27 28 28 28 27 25 24 23 22 23 23 23 24 25 25 24 24 26 28 28 30 31 31 32 34 37 39 43 43 42
22 21 20 20 21 22 21 22 22 23 24 25 26 26 27 26 27 27 26 24 22 21 21 20 21 22 22 23 24 24 25 26 27 27 27 27 28 29 30 32 33 34 37
18 20 20 19 20 20 20 21 22 21 22 24 24 24 24 25 25 26 27 25 25 23 20 20 21 20 19 21 23 23 23 24 24 23 21 21 22 22 24 25 26 29 31
16 16 17 18 19 19 19 20 21 22 21 21 21 23 23 24 24 24 24 25 24 23 22 21 21 22 20 20 21 22 22 22 21 21 19 18 19 19 20 21 22 23 24

GFSMW_sfc_30mbdewp_138.txt.gz
Dewpoint
30 31 32 34 37 39 41 44 46 46 34 35 55 61 61 63 63 63 64 66 68 67 67 66 65 65 64 65 65 64 63 61 62 59 59 59 60 61 61 59 58 59 61
31 31 31 32 35 38 40 43 43 46 41 31 33 60 61 63 63 63 64 64 66 66 66 67 64 65 64 65 65 64 63 62 62 60 59 57 59 61 61 62 60 59 59
30 31 30 31 33 35 38 40 42 43 46 34 32 35 60 61 62 62 63 64 66 66 65 66 66 66 64 64 65 64 62 60 62 61 59 55 54 57 60 61 61 60 60
29 30 30 30 30 33 37 38 41 43 45 35 32 35 46 58 59 60 62 63 64 66 66 65 65 65 64 63 64 65 63 62 60 61 62 61 61 55 55 60 61 61 60
29 30 29 30 30 31 35 36 38 41 44 47 37 34 38 53 59 61 61 62 63 66 66 65 65 64 65 64 65 65 64 63 62 60 60 61 60 59 57 54 57 59 59
29 29 30 30 30 31 33 36 37 38 42 46 50 49 39 44 57 58 60 61 63 65 65 65 64 64 65 65 65 64 63 63 62 62 61 59 58 59 58 56 56 56 58
30 30 30 31 30 30 31 35 36 36 40 44 48 51 52 46 50 58 60 59 61 62 64 64 63 64 65 65 64 63 62 62 62 61 60 61 61 61 59 56 56 54 58
30 31 31 31 31 30 31 33 35 35 37 43 46 48 49 52 55 60 59 58 59 62 64 64 64 64 65 64 63 63 62 61 60 59 60 61 61 61 60 55 54 52 56
30 30 31 31 30 30 31 32 33 34 37 40 44 45 48 48 49 55 58 60 60 63 63 64 64 65 65 64 63 61 59 58 58 58 60 61 60 61 60 58 58 52 52
30 31 30 31 30 31 32 32 33 33 35 38 41 43 43 45 45 48 51 54 59 63 64 64 64 64 64 63 61 60 60 60 60 59 60 60 60 61 62 62 62 60 57
30 30 31 31 31 30 31 31 31 32 34 36 38 41 42 42 43 45 47 48 50 50 50 52 54 60 61 62 61 61 61 61 60 60 60 60 61 62 62 62 61 61 60
30 30 30 30 30 30 30 31 32 32 32 34 37 35 38 39 39 41 45 44 45 48 50 50 50 50 50 51 54 58 60 60 60 60 61 61 61 61 61 61 61 61 61
28 29 28 30 30 30 30 31 31 31 32 33 34 34 35 36 38 38 42 44 44 43 43 45 46 47 47 47 47 47 48 49 53 57 59 59 60 60 60 59 60 60 60
27 27 28 28 28 29 30 31 31 32 32 32 32 33 34 34 35 36 38 40 42 42 40 40 41 42 43 40 39 40 42 44 47 50 52 53 58 59 58 59 60 59 58
25 25 26 27 26 26 28 29 30 32 33 32 32 32 32 34 34 34 35 37 38 39 39 39 39 39 37 34 33 34 36 37 39 42 44 47 50 50 54 57 57 57 57
24 24 24 25 26 25 27 27 28 29 29 30 31 32 32 31 32 33 32 35 36 36 36 35 35 36 34 31 32 32 32 34 35 37 39 41 44 47 49 51 56 57 57
22 23 23 24 25 25 27 26 27 27 28 28 28 29 30 29 30 30 30 30 32 33 33 33 32 32 30 29 29 29 31 33 35 37 38 40 42 43 45 49 52 53 53
22 22 24 25 25 25 26 26 26 27 27 27 27 27 29 29 29 29 29 29 29 29 29 31 31 30 29 29 29 28 29 31 34 35 37 40 42 45 46 48 53 54 54
21 22 23 24 25 25 26 25 25 26 26 27 27 27 28 27 27 27 27 27 28 28 28 29 29 28 28 28 26 26 27 29 30 32 33 35 38 42 47 49 51 54 54
21 21 22 23 24 26 26 25 25 26 26 28 27 28 28 27 26 26 26 25 25 26 26 26 28 27 26 26 26 25 26 27 28 30 32 34 33 33 34 38 50 53 51
21 22 21 23 23 25 25 24 24 26 27 28 28 29 28 27 27 26 25 23 23 24 23 24 25 25 25 24 24 24 24 25 27 28 29 31 31 32 33 35 41 50 52
21 21 21 22 22 23 24 23 23 25 26 27 27 28 27 28 28 26 25 23 22 21 21 21 22 23 23 22 23 23 23 24 26 27 28 27 27 30 31 32 32 38 43
22 21 22 21 21 22 22 22 23 24 24 25 26 26 26 27 27 26 24 22 21 20 19 19 20 20 21 22 24 22 22 23 24 25 24 23 24 25 27 28 29 33 37
23 22 21 21 21 21 21 22 23 23 23 23 24 24 24 25 26 27 25 24 22 20 20 19 19 19 19 21 24 23 22 23 23 23 22 21 21 21 22 24 25 27 29
18 20 20 20 20 20 19 20 22 22 22 22 23 23 23 24 24 25 27 25 24 22 20 20 21 20 19 20 21 21 20 20 21 20 19 19 19 19 20 21 22 23 24
15 17 17 17 19 17 17 19 22 23 22 20 21 23 22 22 22 23 23 25 25 19 17 18 21 22 20 18 19 19 18 18 17 16 16 17 19 19 19 20 20 21 22

GFSMW_sfc_30mbdewp_144.txt.gz
Dewpoint
29 29 29 29 29 29 29 29 31 32 33 36 37 38 41 43 47 49 59 64 64 65 65 64 65 66 65 65 64 63 62 61 61 59 59 59 61 60 60 58 59 60 60
29 29 29 29 29 29 29 29 30 31 32 34 36 37 41 45 47 50 53 61 63 63 63 64 65 65 65 65 64 63 62 62 61 58 58 56 57 60 60 60 59 59 60
29 29 29 29 29 29 29 29 30 31 32 34 36 37 40 43 46 48 49 57 63 63 63 63 65 65 65 64 65 64 62 60 61 60 56 54 53 55 58 59 59 59 59
29 29 29 29 29 29 30 30 30 31 31 33 35 36 38 39 43 45 49 51 54 61 63 63 63 65 65 64 65 64 63 61 60 60 59 57 55 53 53 58 59 60 60
29 29 29 29 29 29 30 30 30 31 31 32 34 36 38 40 42 44 48 50 52 59 61 61 63 63 65 64 64 64 63 62 61 60 59 57 57 56 54 54 58 60 60
30 29 29 29 29 29 29 29 30 31 32 32 34 35 36 38 40 42 45 50 51 54 58 61 62 62 62 64 64 64 64 62 61 61 60 59 56 57 56 54 55 57 59
29 29 28 28 29 29 29 30 30 31 32 33 34 34 37 37 39 40 42 44 48 52 54 59 60 61 62 61 64 64 64 63 62 61 61 60 59 58 58 57 55 54 56
28 28 28 28 28 29 29 29 30 32 33 33 33 34 35 36 37 39 41 44 46 52 54 53 55 56 58 62 61 63 63 63 62 61 61 60 59 59 58 57 56 54 54
28 28 28 27 28 28 29 30 30 31 32 33 33 32 33 35 35 37 40 43 46 48 50 49 52 56 58 58 58 63 62 63 62 61 61 60 60 60 59 58 57 55 52
27 27 27 28 28 27 28 29 30 31 31 32 32 32 33 34 35 36 36 40 43 46 46 46 49 54 57 57 59 60 63 63 63 62 60 60 60 60 60 60 59 57 56
27 26 27 27 27 26 27 27 29 30 30 31 32 32 32 33 34 35 35 38 41 44 42 39 40 45 58 52 47 55 62 62 62 60 59 59 59 59 60 60 59 58 57
26 26 27 26 25 25 26 27 28 28 30 31 32 31 32 32 32 33 33 36 38 41 39 37 36 36 39 42 38 40 58 61 58 58 58 58 58 57 58 58 59 59 59
25 26 26 25 24 25 26 27 27 28 29 30 30 30 31 31 31 32 32 34 36 38 37 35 35 35 35 35 34 34 41 49 50 51 51 49 52 57 57 59 59 59 59
25 26 25 24 24 24 26 26 27 27 28 29 29 30 30 30 31 31 33 32 34 34 34 33 33 33 33 34 34 33 34 41 43 44 44 44 43 42 42 44 47 53 58
24 26 25 24 23 24 26 25 27 27 28 28 28 29 29 30 30 29 31 31 32 32 31 30 29 31 31 32 32 33 32 35 38 38 39 40 41 42 42 42 43 44 47
23 25 23 23 23 24 25 25 25 27 28 27 26 27 27 27 27 27 29 28 30 30 29 28 27 27 29 31 32 32 32 32 33 34 35 36 37 38 36 35 35 38 42
22 24 22 22 23 24 24 23 25 26 27 27 27 27 26 25 24 23 24 23 26 26 25 25 25 26 28 29 29 30 31 31 31 32 32 33 34 35 31 32 33 36 38
21 24 24 22 24 23 23 23 25 25 26 26 26 27 25 24 23 22 22 21 22 22 22 22 23 25 27 28 28 28 29 29 30 31 30 30 29 29 29 30 32 34 36
21 22 23 22 25 23 23 23 24 24 25 25 26 26 28 23 22 21 21 21 20 21 20 21 21 23 25 27 27 26 26 25 27 27 27 26 26 26 28 29 30 32 34
21 21 21 23 22 22 22 22 23 23 24 25 25 25 27 24 22 21 20 20 20 20 19 20 20 21 24 24 24 24 24 23 23 24 23 24 24 24 25 26 27 26 28
21 22 21 22 21 21 21 20 22 23 24 23 24 24 24 27 23 21 19 19 18 19 19 19 19 20 22 22 22 21 20 20 22 21 21 23 22 22 23 24 25 25 26
20 21 20 21 20 20 20 20 21 24 21 22 22 22 22 24 25 21 19 17 18 17 18 17 17 18 21 20 20 20 19 17 18 18 19 20 20 21 21 22 23 24 25
19 20 20 20 18 18 19 19 21 23 20 21 21 21 21 21 24 20 18 16 17 17 17 16 16 17 19 20 18 18 17 16 15 16 16 16 16 17 19 20 21 22 23
18 18 19 16 15 17 18 19 21 21 19 21 19 20 20 20 19 22 19 16 16 16 16 16 15 15 16 19 19 18 17 15 14 13 13 13 14 13 15 16 18 20 21
17 18 18 17 15 16 17 18 20 21 19 20 18 18 18 19 18 18 21 15 15 15 15 17 15 15 15 17 17 16 16 14 12 11 10 10 10 10 11 12 15 17 18
17 16 16 15 15 16 16 17 19 22 18 18 18 18 17 16 17 16 15 16 14 13 13 13 14 14 13 13 13 14 13 13 10 8 7 7 8 8 9 10 11 14 15

GFSMW_sfc_30mbdewp_150.txt.gz
Dewpoint
29 29 30 30 29 29 29 29 30 31 31 31 31 32 32 34 36 38 40 40 42 45 46 48 51 52 63 64 64 61 60 62 61 59 58 58 60 61 61 61 61 61 61
29 29 29 29 29 29 29 29 30 30 31 31 31 32 33 34 34 35 37 39 41 43 43 46 49 51 52 61 63 60 62 62 61 58 57 54 56 59 60 60 60 60 60
29 28 28 28 29 29 29 29 29 30 30 31 31 31 32 33 33 34 35 37 39 42 42 44 47 50 52 54 61 63 63 61 61 60 56 54 52 54 58 60 60 59 59
29 28 27 27 27 27 28 28 29 29 29 30 31 30 30 30 33 34 36 36 38 41 41 41 45 48 52 56 60 62 62 62 59 61 60 58 56 54 53 57 60 59 58
28 27 26 27 27 27 27 28 29 29 29 29 30 30 30 32 32 34 35 36 37 38 40 42 43 46 51 54 59 60 60 59 58 59 58 59 56 55 53 52 56 59 59
28 28 27 27 27 27 27 28 28 28 29 29 30 30 30 31 31 31 33 35 36 37 38 40 42 45 47 50 56 60 60 59 59 57 59 58 56 55 53 52 54 55 57
27 27 26 26 26 26 26 27 27 27 28 29 30 30 30 31 32 33 32 33 34 35 36 39 41 43 46 47 50 53 59 58 57 55 53 56 59 58 56 54 53 54 56
26 27 26 26 25 25 27 27 27 27 28 28 29 29 30 31 32 32 33 33 33 34 36 37 38 40 41 41 44 50 56 58 58 56 56 54 57 60 59 55 54 53 54
26 26 25 25 25 25 27 27 27 27 28 28 29 29 30 28 30 31 32 32 33 34 33 33 34 36 37 39 42 46 52 57 57 57 56 55 55 56 61 59 57 54 51
26 25 24 23 24 25 26 27 28 27 27 29 29 29 29 29 28 29 28 29 31 32 31 31 30 31 32 35 38 42 49 54 57 58 56 56 55 57 58 60 59 57 54
25 24 23 23 23 23 25 26 27 28 28 28 28 27 27 27 28 28 28 28 29 30 29 28 29 29 30 32 34 37 41 49 55 56 57 55 54 54 59 61 59 58 57
24 24 22 22 22 22 24 24 26 27 28 29 27 27 26 27 26 26 27 27 27 27 28 28 28 28 28 30 31 34 37 41 47 53 54 54 54 54 56 58 59 58 58
24 23 22 21 21 22 23 23 24 25 27 28 26 26 25 25 25 25 26 26 25 25 25 26 26 28 28 28 30 32 36 39 41 44 46 52 54 54 56 58 59 59 58
25 23 23 21 22 21 22 23 24 25 26 26 25 25 24 24 24 24 24 25 25 24 24 24 25 27 28 28 28 30 33 36 37 36 34 35 35 36 49 54 58 58 58
23 23 22 21 23 21 22 23 23 24 25 24 24 24 23 23 22 22 23 23 23 23 23 23 24 25 26 28 28 28 28 29 33 33 33 33 33 33 34 38 42 47 55
23 22 21 21 21 21 22 22 22 23 24 23 23 24 22 21 20 20 21 21 21 22 21 22 22 22 26 27 28 27 26 26 27 27 30 30 31 32 33 34 36 37 41
23 22 21 21 20 21 22 22 23 23 22 22 22 23 24 19 19 18 18 19 19 20 19 20 21 21 25 26 25 26 25 24 23 25 25 27 29 30 32 32 32 33 33
22 22 21 20 20 21 21 22 22 22 21 21 21 22 23 18 18 17 17 18 18 17 17 18 20 20 22 23 23 23 23 22 22 22 25 25 26 28 29 32 31 31 29
22 21 23 19 19 20 21 20 21 20 20 20 20 21 22 17 17 17 16 17 17 15 16 16 18 19 20 21 20 18 21 19 20 21 22 24 24 26 25 25 26 27 26
21 20 20 18 19 19 19 19 19 19 19 20 20 21 21 16 16 16 16 16 16 14 15 14 16 18 19 20 20 17 16 16 16 17 18 21 22 24 23 22 22 21 22
21 20 18 18 18 19 17 18 18 18 18 18 19 19 19 20 14 15 16 15 15 14 14 14 14 15 17 18 19 18 15 15 14 15 16 18 18 20 20 20 20 20 22
19 18 16 17 18 19 17 17 18 19 18 16 16 16 16 18 16 14 14 15 14 13 13 13 13 14 16 15 16 16 16 13 13 13 15 15 15 15 17 17 17 17 19
18 15 15 16 17 18 18 18 19 20 18 16 16 15 15 14 14 15 13 14 14 13 11 11 12 12 14 14 13 12 12 12 10 12 12 12 11 11 12 14 14 15 15
15 14 14 15 16 17 18 19 19 20 18 16 15 16 14 13 12 13 14 13 14 13 12 11 11 11 12 13 12 12 10 8 7 8 9 8 9 8 9 10 11 12 13
16 13 14 15 16 17 17 18 19 18 16 15 14 15 14 13 11 10 13 13 13 13 13 13 11 12 11 11 10 10 8 7 4 2 2 2 3 4 5 6 7 9 10
17 14 14 15 15 15 15 16 18 17 15 14 13 13 13 12 11 10 8 11 11 11 11 11 12 11 11 10 9 7 6 4 2 -1 -1 -1 0 1 2 3 4 5 7